[[{"header":{"parameterUnit":"m.s-1","parameterCategory":1,"la1":30.2991,"la2":30.254,"lo1":-89.0895,"lo2":-89.0444,"dy":0.0017,"dx":0.0017,"nx":28,"ny":28,"refTime":"2024-06-21T21:00:00:Z","depth":0,"parameterNumber":2,"parameterNumberName":"U-component_of_WINDS"},"data":[0,0,0,0,0,0,0,0,0,0,0,0,0,0,0,0,0,0,0,0,0,0,0,0,0,0,0,0,0,0,0,0,0,0,0,0,0,0,0,0,0,0,0,0,0,0,0,0,0,0,0,0,0,0,0,0,0,0,3.094,3.0941,0,3.1023,3.1024,3.1025,3.0988,3.0986,3.0984,3.0982,3.1066,3.107,3.1074,0,0,0,0,0,0,0,0,0,0,0,0,0,3.0748,3.0752,3.094,3.0941,3.0942,3.1023,3.1024,3.1025,3.0989,3.0986,3.0984,3.0981,3.1065,3.107,3.1075,0,0,0,0,0,0,0,0,0,0,0,0,0,3.0831,3.0753,3.094,3.0934,3.0934,3.1023,3.1024,3.1026,3.0989,3.0986,3.0983,3.098,3.1063,3.1069,3.1075,3.1175,0,0,3.1094,3.1097,0,0,0,0,0,0,0,0,3.0827,3.0839,3.0934,3.0934,3.0935,3.0992,3.0987,3.1076,3.099,3.0968,3.0982,3.0979,3.1044,3.1051,3.1074,3.1178,3.1182,3.1095,3.1098,3.1101,3.1103,0,0,0,0,0,0,0,3.0821,3.0835,3.0973,3.0935,3.0936,3.0926,3.0935,3.1004,3.1022,3.097,3.0967,3.0978,3.1044,3.1068,3.1075,3.1183,3.1094,3.11,3.1104,3.1106,3.1372,3.1375,0,0,0,0,0,0,3.0816,3.083,3.097,3.0976,3.0872,3.0932,3.0942,3.0977,3.1021,3.1025,3.098,3.0976,3.1059,3.1068,3.1078,3.1196,3.1101,3.1107,3.111,3.1368,3.1372,3.1376,0,0,0,0,0,0,3.0812,3.0828,3.0967,3.0902,3.0919,3.0939,3.0979,3.098,3.1004,3.1029,3.1032,3.1002,3.1057,3.1069,3.115,3.1198,3.111,3.1115,3.1364,3.1369,3.1374,3.1433,0,0,0,0,0,0,3.0806,3.0827,3.0866,3.0903,3.0923,3.1039,3.0982,3.0984,3.1015,3.101,3.105,3.1054,3.1055,3.1141,3.1157,3.1205,3.112,3.136,3.1367,3.1372,3.1426,3.1439,3.145,0,0,0,0,0,3.08,3.0879,3.0868,3.0885,3.0971,3.1042,3.1053,3.1053,3.1019,3.1058,3.1073,3.1052,3.1191,3.115,3.1167,3.1218,3.1357,3.1365,3.1372,3.1421,3.1436,3.1449,0,0,0,0,0,0,3.0847,3.0884,3.0872,3.0966,3.1001,3.1035,3.1084,3.1069,3.1114,3.1107,3.1106,3.1115,3.1198,3.1216,3.117,3.1315,3.1269,3.128,3.13,3.1315,3.1326,3.132,3.1125,0,0,0,0,0,3.0868,3.0922,3.0952,3.1032,3.105,3.1064,3.1095,3.1092,3.1128,3.1142,3.1164,3.1199,3.125,3.1284,3.1332,3.1429,3.1436,3.1473,3.1484,3.1494,3.1503,3.1553,3.1569,3.14,3.14,3.14,0,0,3.0913,3.094,3.0974,3.1042,3.1069,3.1124,3.1077,3.1138,3.1178,3.1151,3.1229,3.1246,3.1285,3.1374,3.1414,3.1391,3.1551,3.1503,3.151,3.1515,3.1563,3.1579,3.1593,3.1406,3.1405,3.1404,0,0,3.1022,3.1049,3.1117,3.1145,3.1186,3.1194,3.1211,3.1247,3.1258,3.1335,3.1316,3.1364,3.1452,3.148,3.1506,3.1625,3.1607,3.1641,3.1701,3.175,3.1763,3.1775,3.1816,3.183,3.165,3.1651,3.1651,0,3.1072,3.1155,3.1155,3.1217,3.1247,3.1225,3.1294,3.132,3.1375,3.1396,3.137,3.1479,3.1504,3.1598,3.1627,3.165,3.1667,3.1636,3.1762,3.1774,3.1784,3.1823,3.1838,3.1654,3.1654,3.1653,3.1653,0,3.1213,3.1271,3.1322,3.1375,3.1411,3.1476,3.1485,3.1521,3.1515,3.1526,3.1604,3.1633,3.1686,3.1709,3.1704,3.1802,3.1786,3.1762,3.1714,3.1804,3.184,3.1855,3.166,3.1658,3.1657,3.1656,0,0,3.1354,3.1406,3.1424,3.1447,3.149,3.1534,3.1598,3.165,3.168,3.1719,3.1771,3.1846,3.1823,3.1852,3.185,3.1894,3.1983,3.1863,3.1864,3.1883,3.2091,3.2108,3.2125,3.1972,3.1975,3.1977,3.2087,0,3.1465,3.1577,3.1578,3.1681,3.1733,3.1713,3.1768,3.18,3.1812,3.1857,3.187,3.1923,3.1889,3.1906,3.1949,3.1964,3.2025,3.1956,3.2019,3.2022,3.2008,3.2144,3.2163,3.2265,3.2101,3.2104,3.2105,0,3.1609,3.1651,3.1759,3.1793,3.1815,3.1865,3.1912,3.1956,3.1992,3.1997,3.203,3.2021,3.2084,3.2036,3.2123,3.2076,3.2102,3.2114,3.2118,3.2122,3.2068,3.2151,3.2298,3.2312,3.2128,3.2126,3.2124,0,3.1698,3.1782,3.1857,3.1878,3.192,3.1955,3.1974,3.2007,3.2037,3.2078,3.2098,3.2146,3.2172,3.2209,3.2213,3.2178,3.23,3.2252,3.2304,3.2304,3.233,3.2328,3.2481,3.235,3.235,3.2349,3.2349,0,3.182,3.1887,3.1898,3.1944,3.2017,3.2017,3.2089,3.2105,3.2134,3.2182,3.2168,3.2213,3.2216,3.2262,3.2266,3.2336,3.2348,3.2353,3.2353,3.2354,3.2353,3.2369,3.2362,3.2353,3.2353,3.2352,3.2351,0,3.1932,3.1942,3.2022,3.2055,3.2065,3.2117,3.2145,3.2188,3.2199,3.2259,3.2274,3.229,3.2343,3.2351,3.2414,3.2416,3.2499,3.2493,3.2487,3.2486,3.2537,3.2531,3.2705,3.2727,3.2583,3.2584,3.2585,0,3.2008,3.2059,3.2097,3.2128,3.2149,3.22,3.2231,3.2233,3.2266,3.2309,3.2347,3.2399,3.244,3.2526,3.2543,3.259,3.2583,3.2641,3.259,3.2588,3.2582,3.2578,3.2582,3.265,3.2652,3.2653,3.2654,0,3.2142,3.2145,3.219,3.2238,3.2275,3.2312,3.2348,3.2374,3.238,3.2418,3.2472,3.2504,3.2568,3.2619,3.2665,3.2684,3.267,3.267,3.2684,3.2684,3.2678,3.268,3.2512,3.2666,3.2664,3.2664,3.2663,3.2662,3.2237,3.228,3.2314,3.2365,3.2391,3.2424,3.2466,3.2481,3.2527,3.2578,3.2577,3.2636,3.2669,3.273,3.2752,3.2798,3.2779,3.28,3.2805,3.2809,3.2813,3.2672,3.2806,3.2806,3.2806,3.2806,3.2805,0,3.2369,3.2389,3.2436,3.2485,3.2525,3.2509,3.2546,3.258,3.2633,3.2665,3.2705,3.2767,3.2816,3.2837,3.2885,3.2917,3.2912,3.2929,3.2926,3.293,3.2829,3.2811,3.2933,3.2933,3.2933,3.2933,3.2933,3.2933,3.2442,3.2513,3.2519,3.2603,3.2623,3.2681,3.2703,3.2733,3.2758,3.2828,3.2868,3.2882,3.2909,3.2958,3.3002,3.3007,3.3024,3.3045,3.3046,3.2951,3.2938,3.2925,3.2908,3.3049,3.3049,3.3144,3.3145,3.3145]},{"header":{"parameterUnit":"m.s-1","parameterCategory":1,"la1":30.2991,"la2":30.254,"lo1":-89.0895,"lo2":-89.0444,"dy":0.0017,"dx":0.0017,"nx":28,"ny":28,"refTime":"2024-06-21T21:00:00:Z","depth":0,"parameterNumber":3,"parameterNumberName":"V-component_of_WINDS"},"data":[0,0,0,0,0,0,0,0,0,0,0,0,0,0,0,0,0,0,0,0,0,0,0,0,0,0,0,0,0,0,0,0,0,0,0,0,0,0,0,0,0,0,0,0,0,0,0,0,0,0,0,0,0,0,0,0,0,0,-0.4714,-0.4715,0,-0.4785,-0.4786,-0.4786,-0.4817,-0.4817,-0.4816,-0.4816,-0.4888,-0.489,-0.4892,0,0,0,0,0,0,0,0,0,0,0,0,0,-0.4607,-0.4608,-0.4714,-0.4715,-0.4716,-0.4785,-0.4786,-0.4787,-0.4817,-0.4816,-0.4816,-0.4816,-0.4888,-0.489,-0.4893,0,0,0,0,0,0,0,0,0,0,0,0,0,-0.4663,-0.4609,-0.4714,-0.4739,-0.4742,-0.4785,-0.4786,-0.4787,-0.4817,-0.4816,-0.4816,-0.4816,-0.4887,-0.489,-0.4893,-0.4915,0,0,-0.4902,-0.4904,0,0,0,0,0,0,0,0,-0.466,-0.4667,-0.4735,-0.4738,-0.4741,-0.4792,-0.4774,-0.483,-0.4817,-0.4788,-0.4816,-0.4816,-0.4856,-0.4862,-0.4876,-0.4919,-0.4922,-0.4902,-0.4904,-0.4906,-0.4907,0,0,0,0,0,0,0,-0.4656,-0.4664,-0.4742,-0.4736,-0.474,-0.4747,-0.4755,-0.4785,-0.4823,-0.4791,-0.4793,-0.4801,-0.4858,-0.4873,-0.4877,-0.4923,-0.4902,-0.4905,-0.4907,-0.4908,-0.4989,-0.499,0,0,0,0,0,0,-0.4648,-0.466,-0.474,-0.4744,-0.4699,-0.475,-0.4758,-0.4776,-0.4822,-0.4829,-0.4801,-0.4802,-0.4867,-0.4874,-0.488,-0.491,-0.4906,-0.4908,-0.491,-0.4989,-0.4989,-0.499,0,0,0,0,0,0,-0.4645,-0.4654,-0.4737,-0.4703,-0.4714,-0.4752,-0.4771,-0.4777,-0.4792,-0.483,-0.4837,-0.4809,-0.4868,-0.4876,-0.4907,-0.4913,-0.491,-0.4913,-0.4989,-0.4989,-0.499,-0.497,0,0,0,0,0,0,-0.4642,-0.4653,-0.4662,-0.4703,-0.4716,-0.4762,-0.4771,-0.4779,-0.4797,-0.4799,-0.4839,-0.4846,-0.4868,-0.4902,-0.491,-0.4917,-0.4915,-0.4988,-0.4989,-0.4989,-0.497,-0.497,-0.4969,0,0,0,0,0,-0.4638,-0.4653,-0.4662,-0.4672,-0.4727,-0.4762,-0.477,-0.4795,-0.4797,-0.4806,-0.4831,-0.4845,-0.4911,-0.4905,-0.4914,-0.4922,-0.4988,-0.4989,-0.4989,-0.497,-0.497,-0.4969,0,0,0,0,0,0,-0.4612,-0.4659,-0.467,-0.4699,-0.4726,-0.4767,-0.478,-0.4793,-0.4821,-0.4822,-0.4852,-0.4861,-0.4889,-0.4909,-0.4901,-0.4947,-0.4951,-0.4953,-0.4933,-0.4933,-0.4932,-0.4927,-0.4918,0,0,0,0,0,-0.4609,-0.4634,-0.4674,-0.4696,-0.4709,-0.4742,-0.4758,-0.4775,-0.4805,-0.4817,-0.4844,-0.4873,-0.49,-0.4918,-0.4945,-0.4973,-0.4983,-0.4984,-0.4983,-0.4983,-0.4984,-0.5002,-0.5003,-0.4992,-0.4992,-0.4992,0,0,-0.4605,-0.4634,-0.4647,-0.4691,-0.4715,-0.4739,-0.4752,-0.4777,-0.4796,-0.4821,-0.4852,-0.4873,-0.4907,-0.4937,-0.4951,-0.4954,-0.499,-0.4984,-0.4983,-0.4985,-0.5002,-0.5003,-0.5004,-0.4993,-0.4993,-0.4992,0,0,-0.4609,-0.4633,-0.4654,-0.4677,-0.4713,-0.4735,-0.474,-0.478,-0.4795,-0.4826,-0.4846,-0.4869,-0.4915,-0.4939,-0.4957,-0.4971,-0.4985,-0.4979,-0.4977,-0.4993,-0.4994,-0.4995,-0.5001,-0.5002,-0.4981,-0.4981,-0.4981,0,-0.4598,-0.4636,-0.4663,-0.4688,-0.4707,-0.4731,-0.4753,-0.4775,-0.4817,-0.483,-0.4833,-0.4893,-0.4917,-0.4953,-0.4957,-0.497,-0.4978,-0.4975,-0.4992,-0.4993,-0.4994,-0.5,-0.5002,-0.498,-0.498,-0.498,-0.4981,0,-0.4622,-0.4648,-0.4661,-0.4702,-0.4723,-0.4746,-0.4777,-0.4794,-0.481,-0.4832,-0.4864,-0.4895,-0.4929,-0.4939,-0.4954,-0.4978,-0.4978,-0.4986,-0.499,-0.4994,-0.5,-0.5002,-0.4979,-0.4979,-0.498,-0.498,0,0,-0.461,-0.4667,-0.4671,-0.469,-0.4732,-0.4753,-0.4777,-0.4811,-0.4826,-0.4855,-0.4877,-0.4916,-0.4924,-0.4945,-0.4963,-0.4977,-0.4987,-0.4984,-0.4985,-0.4983,-0.5016,-0.5009,-0.5011,-0.4997,-0.4997,-0.4998,-0.5013,0,-0.462,-0.4665,-0.4691,-0.4726,-0.4751,-0.4775,-0.4796,-0.4824,-0.4846,-0.487,-0.4894,-0.4921,-0.4929,-0.4942,-0.4957,-0.4983,-0.4994,-0.4982,-0.5018,-0.5018,-0.5008,-0.5014,-0.5008,-0.5021,-0.5015,-0.5016,-0.5016,0,-0.4638,-0.4666,-0.4704,-0.4743,-0.4755,-0.4774,-0.4807,-0.483,-0.4863,-0.4878,-0.4901,-0.492,-0.4947,-0.4949,-0.4988,-0.4979,-0.4995,-0.501,-0.5011,-0.5016,-0.5017,-0.5019,-0.5025,-0.5027,-0.502,-0.5019,-0.5019,0,-0.4626,-0.4674,-0.4703,-0.4719,-0.4765,-0.4778,-0.4798,-0.4831,-0.485,-0.4879,-0.4892,-0.4924,-0.4942,-0.4967,-0.4994,-0.4993,-0.503,-0.5034,-0.5043,-0.5042,-0.505,-0.5049,-0.5059,-0.506,-0.506,-0.506,-0.506,0,-0.4634,-0.4656,-0.4698,-0.4716,-0.4742,-0.4771,-0.4796,-0.4818,-0.4847,-0.4869,-0.4892,-0.4913,-0.4947,-0.4973,-0.4994,-0.5023,-0.5031,-0.5044,-0.5049,-0.5042,-0.504,-0.5052,-0.5052,-0.506,-0.506,-0.506,-0.506,0,-0.4625,-0.4655,-0.4688,-0.4729,-0.4741,-0.4758,-0.4794,-0.4812,-0.4835,-0.4863,-0.4872,-0.4908,-0.4939,-0.4968,-0.501,-0.5024,-0.5053,-0.506,-0.5042,-0.5045,-0.5052,-0.5051,-0.5071,-0.5075,-0.5073,-0.5073,-0.5073,0,-0.4629,-0.4646,-0.469,-0.4707,-0.4727,-0.4754,-0.4774,-0.4804,-0.4823,-0.4862,-0.4876,-0.4909,-0.4937,-0.4985,-0.5015,-0.5047,-0.5055,-0.506,-0.506,-0.5052,-0.5056,-0.5054,-0.5056,-0.5059,-0.5059,-0.5059,-0.5059,0,-0.4632,-0.4646,-0.4673,-0.4706,-0.4729,-0.4756,-0.4784,-0.4797,-0.4832,-0.4853,-0.4886,-0.4907,-0.495,-0.4982,-0.5018,-0.5039,-0.5055,-0.5059,-0.5062,-0.5055,-0.5044,-0.505,-0.5041,-0.5058,-0.5058,-0.5058,-0.5058,-0.5058,-0.463,-0.4646,-0.468,-0.471,-0.4735,-0.4761,-0.478,-0.4806,-0.4833,-0.487,-0.4887,-0.4919,-0.4952,-0.5002,-0.5023,-0.5049,-0.5053,-0.5058,-0.506,-0.506,-0.5059,-0.504,-0.5056,-0.5056,-0.5056,-0.5056,-0.5056,0,-0.4634,-0.4657,-0.4685,-0.4723,-0.4747,-0.476,-0.4792,-0.4812,-0.484,-0.487,-0.4897,-0.4934,-0.4966,-0.4999,-0.5032,-0.5047,-0.5055,-0.5055,-0.5054,-0.5059,-0.5054,-0.5047,-0.5048,-0.5048,-0.5048,-0.5048,-0.5048,-0.5048,-0.4639,-0.4669,-0.4687,-0.4729,-0.4752,-0.4784,-0.4801,-0.4826,-0.485,-0.489,-0.4917,-0.4938,-0.4969,-0.5006,-0.5036,-0.5045,-0.5056,-0.5054,-0.5064,-0.5059,-0.5059,-0.506,-0.5054,-0.5056,-0.5056,-0.5068,-0.5068,-0.5068]}]]